GW3217 Weather Reports


Display with metric or nautical units.
time (UTC)temp
F
wind
direction
speed
MPH
gust
MPH
rain 1hr
in
rain 24hr
in
rain mn
in
humidity
%
barometer
mb
20260903012449 63 318 0.0 0.0 0.00 0.17 0.17 99 1022.1
20260903011948 63 299 0.0 0.0 0.00 0.17 0.17 99 1022.1
20260903011443 63 348 0.0 0.0 0.00 0.17 0.17 99 1022.4
20260903010938 63 317 0.0 0.0 0.00 0.17 0.17 99 1022.3
20260903010434 63 299 0.0 0.0 0.00 0.17 0.17 99 1022.5
20260903005931 63 294 0.0 0.0 0.00 0.17 0.17 99 1022.2
20260903005427 63 281 0.0 0.0 0.00 0.17 0.17 99 1022.2
20260903004924 63 316 0.0 0.0 0.00 0.17 0.17 99 1022.2
20260903004418 63 308 0.0 0.0 0.00 0.17 0.17 99 1022.2
20260903003914 63 317 0.0 0.0 0.00 0.17 0.17 99 1021.9
20260903003414 63 320 0.0 0.0 0.00 0.17 0.17 99 1022.2
20260903002913 63 309 0.0 0.0 0.00 0.17 0.17 99 1022.3
20260903002408 63 315 0.0 0.0 0.00 0.17 0.17 99 1022.4
20260903001903 63 326 0.0 0.0 0.00 0.17 0.17 99 1022.4
20260903001357 63 318 0.0 0.0 0.00 0.17 0.17 99 1022.2
20260903000852 63 325 0.0 0.0 0.00 0.17 0.17 99 1022.4
20260903000347 63 316 0.0 0.0 0.00 0.17 0.17 99 1022.4
20260902235845 63 318 0.0 0.0 0.00 0.17 0.17 99 1022.1
20260902235340 63 315 0.0 0.0 0.00 0.17 0.17 99 1021.7
20260902234840 63 318 0.0 0.0 0.00 0.17 0.17 99 1021.8
20260902234335 63 315 0.0 0.0 0.00 0.17 0.17 99 1021.6
20260902233833 63 305 0.0 0.0 0.00 0.17 0.17 99 1021.6
20260902233333 63 314 0.0 0.0 0.00 0.17 0.17 99 1021.8
20260902232832 63 317 0.0 0.0 0.00 0.17 0.17 99 1022.2
20260902232327 63 317 0.0 0.0 0.00 0.17 0.17 99 1022.0
20260902231821 63 312 0.0 0.0 0.00 0.17 0.17 99 1022.0
20260902231316 63 309 0.0 0.0 0.00 0.17 0.17 99 1022.2
20260902230811 63 303 0.0 0.0 0.00 0.17 0.17 99 1022.5
20260902230310 63 316 0.0 0.0 0.00 0.17 0.17 99 1022.4
20260902225805 63 315 0.0 0.0 0.00 0.17 0.17 99 1022.2
20260902225300 63 316 0.0 0.0 0.00 0.17 0.17 99 1022.2
20260902224758 63 316 1.0 1.0 0.00 0.17 0.17 99 1022.5
20260902224253 63 255 1.0 2.0 0.00 0.17 0.17 99 1022.4
20260902223749 63 296 1.0 1.0 0.00 0.17 0.17 99 1022.3
20260902223249 63 320 0.0 0.0 0.00 0.17 0.17 99 1022.9
20260902222742 63 328 0.0 0.0 0.00 0.17 0.17 99 1022.9
20260902222236 63 242 2.0 2.0 0.00 0.17 0.17 99 1023.0
20260902221736 63 321 0.0 0.0 0.00 0.17 0.17 99 1023.1
20260902221236 63 316 0.0 0.0 0.00 0.17 0.17 99 1023.1
20260902220726 63 314 0.0 0.0 0.00 0.17 0.17 99 1023.5
20260902220226 63 318 0.0 0.0 0.00 0.17 0.17 99 1023.5
20260902215721 63 323 0.0 0.0 0.00 0.17 0.17 99 1023.2
20260902215216 64 317 0.0 0.0 0.00 0.17 0.17 99 1023.3
20260902214712 64 317 0.0 0.0 0.00 0.17 0.17 99 1023.3
20260902214210 64 318 0.0 0.0 0.00 0.17 0.17 99 1023.2
20260902213706 64 305 1.0 1.0 0.00 0.17 0.17 99 1023.1
20260902213201 64 231 2.0 2.0 0.00 0.17 0.17 99 1022.8
20260902212655 64 320 0.0 0.0 0.00 0.17 0.17 99 1022.7
20260902212152 64 2 0.0 1.0 0.00 0.17 0.17 99 1022.9
20260902211648 64 320 1.0 1.0 0.00 0.17 0.17 99 1022.8
20260902211143 64 329 0.0 0.0 0.00 0.17 0.17 99 1023.1
20260902210642 64 199 0.0 1.0 0.00 0.17 0.17 99 1023.0
20260902210137 64 308 0.0 1.0 0.00 0.17 0.17 99 1022.9
20260902205636 64 275 1.0 2.0 0.00 0.17 0.17 99 1022.8
20260902205131 64 312 0.0 0.0 0.00 0.17 0.17 99 1022.9
20260902204626 64 299 2.0 3.0 0.00 0.17 0.17 99 1023.1
20260902204121 64 322 0.0 0.0 0.00 0.17 0.17 99 1022.9
20260902203617 64 309 0.0 1.0 0.00 0.17 0.17 99 1022.7
20260902203116 64 317 0.0 0.0 0.00 0.17 0.17 99 1022.7
20260902202612 64 55 1.0 2.0 0.00 0.17 0.17 99 1022.5
20260902202108 64 242 0.0 1.0 0.00 0.17 0.17 99 1022.7
20260902201603 64 343 0.0 0.0 0.00 0.17 0.17 99 1022.8
20260902201057 64 328 0.0 0.0 0.00 0.17 0.17 99 1023.1
20260902200552 64 306 0.0 0.0 0.00 0.17 0.17 99 1023.0
20260902200048 64 287 0.0 1.0 0.00 0.17 0.17 99 1023.2
20260902195544 64 316 0.0 0.0 0.00 0.17 0.17 99 1023.0
20260902195042 64 293 2.0 2.0 0.00 0.17 0.17 99 1022.8
20260902194542 63 318 0.0 0.0 0.00 0.17 0.17 99 1022.7
20260902194038 63 322 1.0 1.0 0.00 0.17 0.17 99 1022.8
20260902193534 63 319 0.0 0.0 0.00 0.17 0.17 99 1023.1
20260902193033 62 319 0.0 0.0 0.00 0.17 0.17 99 1023.1
20260902192532 62 313 0.0 1.0 0.00 0.17 0.17 99 1022.9
20260902192030 62 318 0.0 0.0 0.00 0.17 0.17 99 1023.3
20260902191526 62 316 0.0 0.0 0.00 0.17 0.17 99 1023.2
20260902191021 62 330 0.0 1.0 0.00 0.17 0.17 99 1023.2
20260902190516 62 293 0.0 0.0 0.07 0.17 0.17 99 1023.1
20260902190012 63 320 0.0 0.0 0.12 0.17 0.17 99 1023.2
20260902185508 63 314 0.0 0.0 0.05 0.16 0.16 99 1023.2
20260902185003 62 285 0.0 1.0 0.17 0.16 0.16 99 1023.4
20260902184458 62 315 0.0 0.0 0.24 0.15 0.15 99 1023.5
20260902183953 62 328 0.0 0.0 0.24 0.13 0.13 99 1023.8
20260902183450 63 324 0.0 0.0 0.35 0.12 0.12 99 1024.1
20260902182946 63 320 0.0 0.0 0.38 0.09 0.09 99 1024.1
20260902182442 63 321 0.0 0.0 0.19 0.05 0.05 98 1024.6
20260902181937 63 322 0.0 0.0 0.05 0.03 0.03 97 1024.6
20260902181433 63 294 2.0 2.0 0.00 0.02 0.02 95 1024.8
20260902180927 64 306 0.0 0.0 0.00 0.02 0.02 95 1024.1
20260902180422 64 314 0.0 0.0 0.00 0.02 0.02 94 1023.4
20260902175917 64 315 0.0 0.0 0.00 0.02 0.02 94 1023.6
20260902175412 64 315 0.0 0.0 0.00 0.02 0.02 93 1023.6
20260902174908 64 313 0.0 0.0 0.00 0.02 0.02 93 1023.6
20260902174405 64 319 0.0 0.0 0.00 0.02 0.02 94 1023.6
20260902173854 64 306 0.0 0.0 0.00 0.02 0.02 93 1023.6
20260902173354 64 315 0.0 0.0 0.00 0.02 0.02 93 1023.7
20260902172848 64 323 0.0 0.0 0.00 0.02 0.02 93 1023.6
20260902172342 64 318 1.0 1.0 0.00 0.02 0.02 93 1023.6
20260902171838 64 327 0.0 1.0 0.00 0.02 0.02 93 1023.8
20260902171333 64 315 0.0 1.0 0.00 0.02 0.02 93 1023.8
20260902170829 64 202 0.0 1.0 0.00 0.02 0.02 93 1023.7
20260902170324 64 314 0.0 1.0 0.00 0.02 0.02 93 1023.7
20260902165820 64 331 0.0 0.0 0.00 0.02 0.02 93 1023.8
20260902165319 64 313 0.0 0.0 0.00 0.02 0.02 94 1024.1
20260902164814 64 311 0.0 0.0 0.00 0.02 0.02 93 1023.8
20260902164308 64 277 0.0 0.0 0.00 0.02 0.02 92 1023.9
20260902163757 64 33 1.0 2.0 0.00 0.02 0.02 92 1023.8
20260902163257 65 315 0.0 0.0 0.00 0.02 0.02 93 1024.1
20260902162750 65 332 0.0 0.0 0.00 0.02 0.02 92 1023.7
20260902162245 65 270 0.0 0.0 0.00 0.02 0.02 92 1023.8
20260902161740 65 283 0.0 0.0 0.00 0.02 0.02 93 1023.7
20260902161235 64 3 2.0 2.0 0.00 0.02 0.02 92 1023.8
20260902160732 64 307 0.0 0.0 0.00 0.02 0.02 92 1023.9
20260902160226 64 323 0.0 1.0 0.00 0.02 0.02 92 1023.7
20260902155724 64 291 0.0 1.0 0.00 0.02 0.02 92 1024.0
20260902155223 64 308 1.0 1.0 0.00 0.02 0.02 92 1023.9
20260902154719 64 357 0.0 0.0 0.00 0.02 0.02 92 1023.7
20260902154219 64 169 1.0 1.0 0.00 0.02 0.02 92 1023.7
20260902153718 64 306 1.0 1.0 0.00 0.02 0.02 93 1023.8
20260902153212 64 248 1.0 2.0 0.00 0.02 0.02 92 1023.7
20260902152709 64 331 0.0 0.0 0.00 0.02 0.02 93 1023.8
20260902152204 64 316 0.0 0.0 0.00 0.02 0.02 94 1024.1
20260902151659 64 297 1.0 1.0 0.00 0.02 0.02 92 1024.0
20260902151200 64 317 1.0 1.0 0.00 0.02 0.02 92 1023.7
20260902150655 64 325 1.0 2.0 0.00 0.02 0.02 92 1023.8
20260902150150 64 316 1.0 1.0 0.00 0.02 0.02 93 1024.1
20260902145649 64 325 1.0 1.0 0.00 0.02 0.02 92 1023.9
20260902145144 64 320 0.0 1.0 0.00 0.02 0.02 91 1024.1
20260902144641 64 297 1.0 2.0 0.00 0.02 0.02 92 1023.9
20260902144136 64 322 1.0 1.0 0.00 0.02 0.02 92 1024.1
20260902143631 63 329 1.0 2.0 0.00 0.02 0.02 93 1023.8
20260902143126 63 306 2.0 2.0 0.00 0.02 0.02 93 1023.9
20260902142622 63 246 2.0 3.0 0.00 0.02 0.02 93 1024.1
20260902142118 63 304 0.0 1.0 0.00 0.02 0.02 94 1024.1
20260902141617 63 325 0.0 0.0 0.00 0.02 0.02 94 1023.9
20260902141112 63 349 2.0 2.0 0.00 0.02 0.02 95 1023.8
20260902140607 62 305 2.0 2.0 0.00 0.02 0.02 96 1023.8
20260902135556 62 307 0.0 0.0 0.00 0.02 0.02 97 1024.2
20260902135056 62 311 0.0 1.0 0.00 0.02 0.02 98 1024.2
20260902134552 62 322 2.0 3.0 0.00 0.02 0.02 98 1024.2
20260902134052 61 319 0.0 0.0 0.00 0.02 0.02 99 1024.0
20260902133547 61 317 0.0 1.0 0.00 0.02 0.02 99 1023.7
20260902133042 61 282 0.0 1.0 0.00 0.02 0.02 99 1023.9
20260902132537 60 317 0.0 0.0 0.00 0.02 0.02 99 1024.0
20260902132033 60 314 0.0 0.0 0.00 0.02 0.02 99 1023.8
20260902131529 60 315 0.0 0.0 0.00 0.02 0.02 99 1023.7
20260902131028 60 272 0.0 0.0 0.00 0.02 0.02 99 1023.7
20260902130524 60 308 1.0 1.0 0.00 0.02 0.02 99 1023.6
20260902130020 60 308 0.0 0.0 0.00 0.02 0.02 99 1023.7
20260902125515 59 302 0.0 0.0 0.00 0.02 0.02 99 1023.6
20260902125011 59 311 0.0 0.0 0.00 0.02 0.02 99 1023.5
20260902124507 59 321 0.0 0.0 0.00 0.02 0.02 99 1023.8
20260902124002 59 303 0.0 0.0 0.00 0.02 0.02 99 1023.5
20260902123458 59 316 0.0 0.0 0.00 0.02 0.02 99 1023.5
20260902122956 59 290 0.0 1.0 0.00 0.02 0.02 99 1023.5
20260902122446 59 322 0.0 0.0 0.00 0.02 0.02 99 1023.4
20260902121941 58 319 0.0 0.0 0.00 0.02 0.02 99 1023.5
20260902121436 58 312 0.0 0.0 0.00 0.02 0.02 99 1023.4
20260902120931 59 316 0.0 0.0 0.00 0.02 0.02 99 1023.3
20260902120427 58 310 0.0 0.0 0.00 0.02 0.02 99 1023.6
20260902115926 58 323 0.0 0.0 0.00 0.02 0.02 99 1023.4
20260902115423 59 315 0.0 0.0 0.00 0.02 0.02 99 1023.5
20260902114919 59 312 0.0 0.0 0.00 0.02 0.02 99 1023.4
20260902114415 58 320 0.0 0.0 0.00 0.02 0.02 99 1023.8
20260902113909 58 313 0.0 0.0 0.00 0.02 0.02 99 1023.6
20260902113405 58 320 0.0 1.0 0.00 0.02 0.02 99 1023.8
20260902112904 58 311 0.0 0.0 0.00 0.02 0.02 99 1023.7
20260902112401 58 302 0.0 0.0 0.00 0.02 0.02 99 1023.7
20260902111856 58 322 0.0 0.0 0.00 0.02 0.02 99 1023.7
20260902111353 58 315 0.0 0.0 0.00 0.02 0.02 99 1024.0
20260902110848 58 310 0.0 0.0 0.00 0.02 0.02 99 1023.5
20260902110344 58 26 0.0 1.0 0.00 0.02 0.02 99 1023.5
20260902105844 58 321 0.0 0.0 0.00 0.02 0.02 99 1023.5
20260902105338 58 318 0.0 0.0 0.00 0.02 0.02 99 1023.4
20260902104834 58 325 0.0 0.0 0.00 0.02 0.02 99 1023.6
20260902104330 58 315 0.0 0.0 0.00 0.02 0.02 99 1023.5
20260902103830 58 313 0.0 0.0 0.00 0.02 0.02 99 1023.3
20260902103324 58 316 0.0 0.0 0.00 0.02 0.02 99 1023.6
20260902102820 58 320 0.0 0.0 0.00 0.02 0.02 99 1023.4
20260902102318 58 296 0.0 0.0 0.00 0.02 0.02 99 1023.4
20260902101813 59 309 0.0 0.0 0.00 0.02 0.02 99 1023.4
20260902101307 59 309 0.0 0.0 0.07 0.02 0.02 99 1023.4
20260902100807 59 272 0.0 0.0 0.07 0.02 0.02 99 1023.3
20260902100301 59 282 1.0 1.0 0.00 0.01 0.01 99 1023.1
20260902095755 59 260 1.0 1.0 0.00 0.01 0.01 99 1023.4
20260902095250 59 319 0.0 0.0 0.00 0.01 0.01 99 1022.9
20260902094745 59 307 0.0 0.0 0.00 0.01 0.01 99 1022.5
20260902094241 59 301 0.0 0.0 0.00 0.01 0.01 99 1022.7
20260902093740 59 304 0.0 0.0 0.00 0.01 0.01 99 1023.0
20260902093236 59 305 0.0 0.0 0.00 0.01 0.01 99 1022.9
20260902092735 59 329 0.0 0.0 0.00 0.01 0.01 99 1022.8
20260902092230 60 313 0.0 1.0 0.00 0.01 0.01 99 1022.7
20260902091729 60 318 0.0 0.0 0.00 0.01 0.01 99 1022.7
20260902091226 60 319 0.0 0.0 0.00 0.01 0.01 99 1022.8
20260902090722 60 317 0.0 0.0 0.00 0.01 0.01 99 1022.8
20260902090221 60 318 0.0 0.0 0.00 0.01 0.01 99 1022.8
20260902085716 60 316 0.0 0.0 0.00 0.01 0.01 99 1022.7
20260902085210 60 321 0.0 0.0 0.00 0.01 0.01 99 1022.4
20260902084701 60 297 0.0 0.0 0.00 0.01 0.01 99 1022.4
20260902084157 60 317 0.0 0.0 0.00 0.01 0.01 99 1022.4
20260902083652 60 330 0.0 1.0 0.00 0.01 0.01 99 1022.5
20260902083151 60 259 0.0 1.0 0.00 0.01 0.01 99 1022.1
20260902082647 60 316 0.0 0.0 0.00 0.01 0.01 99 1022.3
20260902082144 60 322 0.0 0.0 0.00 0.01 0.01 99 1022.1
20260902081640 60 317 0.0 0.0 0.00 0.01 0.01 99 1022.1
20260902081140 60 314 0.0 0.0 0.00 0.01 0.01 99 1022.1
20260902080635 60 330 0.0 0.0 0.00 0.01 0.01 99 1022.1
20260902080131 60 324 0.0 0.0 0.00 0.01 0.01 99 1022.2
20260902075630 60 317 0.0 0.0 0.00 0.01 0.01 99 1022.1
20260902075121 60 312 0.0 0.0 0.00 0.01 0.01 99 1022.0
20260902074616 60 323 0.0 0.0 0.00 0.01 0.01 99 1022.0
20260902074111 60 316 2.0 2.0 0.00 0.01 0.01 99 1021.9
20260902073606 60 316 0.0 0.0 0.00 0.01 0.01 99 1022.0
20260902073103 60 321 0.0 0.0 0.00 0.01 0.01 99 1021.7
20260902072558 60 324 0.0 0.0 0.00 0.01 0.01 99 1021.9
20260902072055 60 335 0.0 0.0 0.00 0.01 0.01 99 1021.9
20260902071554 60 315 0.0 0.0 0.00 0.01 0.01 99 1022.0
20260902071051 60 313 0.0 0.0 0.00 0.01 0.01 99 1021.8
20260902070545 60 317 0.0 0.0 0.00 0.01 0.01 99 1022.2
20260902070036 60 320 0.0 0.0 0.00 0.01 0.01 99 1021.9
20260902065534 60 340 0.0 0.0 0.00 0.01 0.01 99 1022.1
20260902065030 60 318 0.0 0.0 0.00 0.01 0.01 99 1022.0
20260902064526 60 315 0.0 0.0 0.00 0.01 0.01 99 1022.0
20260902064021 60 325 0.0 0.0 0.00 0.01 0.01 99 1022.2
20260902063521 60 332 0.0 0.0 0.00 0.01 0.01 99 1022.1
20260902063016 60 318 0.0 0.0 0.00 0.01 0.01 99 1022.0
20260902062509 60 311 0.0 0.0 0.00 0.01 0.01 99 1021.9
20260902062005 60 317 0.0 0.0 0.00 0.01 0.01 99 1022.0
20260902061505 60 311 0.0 0.0 0.00 0.01 0.01 99 1022.2
20260902061001 60 313 0.0 0.0 0.00 0.01 0.01 99 1022.2
20260902060457 60 314 0.0 0.0 0.00 0.01 0.01 99 1022.1
20260902055953 60 316 0.0 0.0 0.05 0.01 0.01 99 1022.3
20260902055448 60 323 0.0 0.0 0.05 0.01 0.01 99 1022.1
20260902054944 60 307 0.0 0.0 0.00 0.00 0.00 99 1022.3
20260902054433 60 325 0.0 0.0 0.00 0.00 0.00 99 1022.1
20260902053929 60 321 0.0 0.0 0.00 0.00 0.00 99 1022.2
20260902053424 60 305 0.0 0.0 0.00 0.00 0.00 99 1022.3
20260902052923 60 320 0.0 0.0 0.00 0.00 0.00 99 1022.3
20260902052418 60 313 1.0 2.0 0.00 0.00 0.00 99 1022.1
20260902051913 60 311 0.0 0.0 0.00 0.00 0.00 99 1022.1
20260902051408 60 311 0.0 0.0 0.00 0.00 0.00 99 1022.1
20260902050906 60 315 0.0 0.0 0.00 0.00 0.00 99 1022.0
20260902050401 60 308 0.0 0.0 0.00 0.00 0.00 99 1022.0
20260902045856 60 304 1.0 1.0 0.00 0.00 0.00 99 1022.0
20260902045351 60 308 0.0 0.0 0.00 0.00 0.00 99 1022.1
20260902044848 60 333 0.0 0.0 0.00 0.00 0.00 99 1022.1
20260902044343 60 347 0.0 0.0 0.00 0.00 0.00 99 1022.0
20260902043843 60 312 0.0 0.0 0.00 0.00 0.00 99 1022.0
20260902043338 60 315 0.0 0.0 0.00 0.00 0.00 99 1022.0
20260902042838 60 312 0.0 0.0 0.00 0.00 0.00 99 1022.1
20260902042338 60 314 0.0 0.0 0.00 0.00 0.00 99 1021.9
20260902041834 60 314 0.0 0.0 0.00 0.00 0.00 99 1021.8
20260902041333 60 308 0.0 0.0 0.00 0.00 0.00 99 1021.6
20260902040827 60 291 0.0 0.0 0.00 0.00 0.00 99 1021.8
20260902040323 60 308 0.0 0.0 0.00 0.00 0.00 99 1021.9
20260902035821 60 300 1.0 2.0 0.00 0.65 0.65 99 1021.6
20260902035317 60 311 0.0 0.0 0.00 0.65 0.65 99 1021.8
20260902034815 60 314 2.0 4.0 0.00 0.65 0.65 99 1021.6
20260902034311 60 331 1.0 2.0 0.00 0.65 0.65 99 1021.4
20260902033809 60 326 0.0 0.0 0.00 0.65 0.65 99 1021.3
20260902033304 60 295 0.0 0.0 0.00 0.65 0.65 99 1021.1
20260902032803 60 299 0.0 0.0 0.00 0.65 0.65 99 1021.0
20260902032258 60 314 1.0 2.0 0.00 0.65 0.65 99 1021.0
20260902031757 60 277 1.0 2.0 0.00 0.65 0.65 99 1021.0
20260902031254 60 309 0.0 0.0 0.00 0.65 0.65 99 1021.3
20260902030749 60 314 0.0 0.0 0.00 0.65 0.65 99 1021.2
20260902030244 60 314 0.0 0.0 0.00 0.65 0.65 99 1020.9
20260902025743 60 336 0.0 0.0 0.00 0.65 0.65 99 1021.0
20260902025238 60 273 0.0 0.0 0.00 0.65 0.65 99 1021.1
20260902024733 60 323 0.0 0.0 0.00 0.65 0.65 99 1021.3
20260902024228 60 314 0.0 0.0 0.00 0.65 0.65 99 1020.9
20260902023724 60 160 2.0 3.0 0.00 0.65 0.65 99 1020.6
20260902023218 60 320 2.0 3.0 0.00 0.65 0.65 99 1020.8
20260902022718 61 304 0.0 0.0 0.00 0.65 0.65 99 1020.9
20260902022214 61 281 0.0 1.0 0.00 0.65 0.65 99 1020.8
20260902021709 61 313 0.0 0.0 0.00 0.65 0.65 99 1020.8
20260902021203 61 303 0.0 0.0 0.00 0.65 0.65 99 1020.5
20260902020700 61 318 0.0 0.0 0.00 0.65 0.65 99 1020.7
20260902020155 61 308 0.0 0.0 0.00 0.65 0.65 99 1020.7
20260902015650 61 287 0.0 0.0 0.00 0.65 0.65 99 1020.6
20260902015147 61 322 2.0 2.0 0.00 0.65 0.65 99 1020.6
20260902014642 61 296 0.0 0.0 0.00 0.65 0.65 99 1020.6
20260902014138 61 304 2.0 2.0 0.00 0.65 0.65 99 1020.7
20260902013632 62 311 2.0 2.0 0.00 0.65 0.65 99 1020.6
20260902013128 61 326 1.0 1.0 0.00 0.65 0.65 99 1020.6